World > North America > United States > Illinois > Boaz  

Boaz, IL Hourly Weather Updates

Feedback E-mail the Weather

Quick Clicks

Boaz, IL Weather Maps

°F °C°F °C
Boaz Weather Map
UTC Time: 4/13/2024, 00:08
Your Time:

Boaz, IL Regional Weather

Expires:202404130100;;641637
ASUS43 KLOT 130007
RWRIL 

ILLINOIS REGIONAL WEATHER ROUNDUP
NATIONAL WEATHER SERVICE CHICAGO/ROMEOVILLE IL
700 PM CDT FRI APR 12 2024

NOTE: "FAIR" INDICATES FEW OR NO CLOUDS BELOW 12,000 FEET WITH NO
SIGNIFICANT WEATHER AND/OR OBSTRUCTIONS TO VISIBILITY.

* THESE STATIONS ARE NOT UNDER NWS QUALITY CONTROL. THEY ALSO MAY NOT
  REPORT WEATHER SUCH AS PRECIPITATION OR FOG.


ILZ064>066-069>071-074>076-080>082-084>086-088>090-092>094-130100-
SOUTH-CENTRAL ILLINOIS
  
CITY           SKY/WX    TMP DP  RH WIND       PRES   REMARKS
CARBONDALE     CLEAR     65  33  30 NW9       30.08R TC  18           
6HR MIN TEMP:  63; 6HR MAX TEMP:  68;                                

CAIRO*         CLEAR     67  34  29 NW9       30.09S TC  20           
EFFINGHAM*     CLEAR     60  36  40 W14G21    30.03R TC  16           
MARION           N/A     64  34  32 NW14      30.08R TC  18           
MT. VERNON     CLEAR     63  36  36 W12G18    30.06R TC  17           
CENTRALIA*     CLEAR     64  35  35 W9        30.05S TC  18           
SALEM*         CLEAR     64  33  30 W14G23    30.04S TC  18           
METROPOLIS*    CLEAR     65  31  28 W6        30.09R TC  19           
$$


SKY/WX - Weather  TMP - Temperature  DP - Dew Point  RH - Humidity
WIND - Wind Direction/Speed PRES - Barometric Pressure VSB - Visibility
WCI - Wind Chill Index E13G22 Wind - East Wind 13 mph/Gusts of 22 mph

Trending Headlines

Trending Entertainment Headlines

Boaz Radar Loop

Use the map search tool if you want to place a location marker on the radar map...

Boaz Quick Facts

National Two Day Weather Forecast


E-mail the Boaz Weather Forecast

Voice your opinion or tell us about page issues...